Weather History for Doha, Qatar

Change the Weather History Date:

Friday, May 2, 2014

  Actual Average Record
Temperature  
Mean Temperature 90 °F -  
Max Temperature 96 °F 101 °F 107 °F (2012)
Min Temperature 84 °F 77 °F 73 °F (1997)
Cooling Degree Days 25    
Growing Degree Days 40 (Base 50)    
Moisture  
Dew Point 64 °F    
Average Humidity 42    
Maximum Humidity 66    
Minimum Humidity 20    
Precipitation  
Precipitation 0.00 in 0.00 in - ()
Sea Level Pressure  
Sea Level Pressure 29.74 in    
Wind  
Wind Speed 7 mph ()    
Max Wind Speed 13 mph    
Max Gust Speed 20 mph    
Visibility 5.8 miles    
Events      
Averages and records for this station are not official NWS values.
T = Trace of Precipitation, MM = Missing Value Source: Averaged Metar Reports

Daily Weather History Graph

Daily Weather History Graph

Search for Another Location

Airport:

Trip Planner

Search our weather history database for the weather conditions in past years. The results will help you decide how hot, cold, wet, or windy it might be!

Date:

Astronomy

May. 02, 2014 Rise Set
Actual Time 4:57 AM AST 6:04 PM AST
Civil Twilight 4:33 AM AST 6:28 PM AST
Nautical Twilight 4:04 AM AST 6:57 PM AST
Astronomical Twilight 3:35 AM AST 7:26 PM AST
Moon 7:20 AM AST (5/2) 9:02 PM AST (5/2)
Length of Visible Light 13h 55m
Length of Day
13h 07m
Waxing Crescent, 10% of the Moon is Illuminated
May 2
Waxing Crescent
May 7
First Quarter
May 14
Full
May 21
Last Quarter
May 28
New

Hourly Weather History & Observations

Time (AST) Temp. Heat Index Dew Point Humidity Pressure Visibility Wind Dir Wind Speed Gust Speed Precip Events Conditions
12:00 AM 85 °F - 67 °F 46% 29.75 in 6 mi ENE 4.6 mph - -   Widespread Dust
12:00 AM 86.0 °F 89.4 °F 68.0 °F 55% - 5.6 mi ENE 4.6 mph - N/A   Unknown
12:30 AM 86.0 °F 89.4 °F 68.0 °F 55% 29.74 in - NE 3.5 mph - N/A   Clear
1:00 AM 86.0 °F 89.4 °F 68.0 °F 55% 29.74 in - NNE 5.8 mph - N/A   Clear
2:00 AM 86.0 °F 88.2 °F 66.2 °F 51% 29.77 in 4.3 mi NNW 11.5 mph - N/A   Mostly Cloudy
2:30 AM 87.8 °F 87.1 °F 59.0 °F 38% 29.74 in 5.0 mi North 10.4 mph - N/A   Mostly Cloudy
3:00 AM 88 °F - 60 °F 28% 29.72 in 6 mi NNE 8.1 mph - -   Scattered Clouds
3:00 AM 87.8 °F 87.1 °F 59.0 °F 38% 29.71 in - NNE 8.1 mph - N/A   Clear
3:30 AM 86.0 °F 86.1 °F 60.8 °F 43% 29.71 in - Variable 2.3 mph - N/A   Clear
4:00 AM 86.0 °F 86.6 °F 62.6 °F 45% 29.71 in - East 3.5 mph - N/A   Clear
4:30 AM 86.0 °F 88.2 °F 66.2 °F 51% 29.71 in - ENE 3.5 mph - N/A   Clear
5:00 AM 86.0 °F 89.4 °F 68.0 °F 55% 29.71 in - East 3.5 mph - N/A   Clear
5:30 AM 86.0 °F 90.4 °F 69.8 °F 58% 29.74 in - East 3.5 mph - N/A   Clear
6:00 AM 86 °F - 67 °F 44% 29.76 in 7 mi NNE 3.5 mph - -   Scattered Clouds
6:00 AM 86.0 °F 90.4 °F 69.8 °F 58% 29.74 in - NE 5.8 mph - N/A   Clear
6:30 AM 86.0 °F 90.4 °F 69.8 °F 58% 29.74 in - NE 5.8 mph - N/A   Clear
8:00 AM 89.6 °F 93.4 °F 68.0 °F 49% 29.80 in - NNE 9.2 mph - N/A   Clear
8:30 AM 91.4 °F 91.4 °F 60.8 °F 36% 29.80 in - NNE 9.2 mph - N/A   Clear
9:00 AM 92 °F - 67 °F 35% 29.82 in 6 mi North 12.7 mph - -   Widespread Dust
9:00 AM 91.4 °F 95.4 °F 68.0 °F 46% 29.80 in 5.6 mi North 12.7 mph - N/A   Unknown
9:30 AM 91.4 °F 92.1 °F 62.6 °F 38% 29.80 in 5.6 mi NNE 11.5 mph - N/A   Unknown
10:00 AM 93.2 °F 92.6 °F 59.0 °F 32% 29.80 in - NE 12.7 mph - N/A   Clear
10:30 AM 95.0 °F 93.0 °F 55.4 °F 26% 29.80 in - NNE 11.5 mph - N/A   Clear
11:00 AM 93.2 °F 91.9 °F 57.2 °F 30% 29.77 in - NE 11.5 mph - N/A   Clear
11:30 AM 95.0 °F 93.0 °F 55.4 °F 26% 29.77 in - NE 11.5 mph - N/A   Clear
12:00 PM 95 °F - 58 °F 20% 29.78 in 6 mi ENE 11.5 mph - -   Clear
12:00 PM 95.0 °F 94.4 °F 59.0 °F 30% 29.77 in - ENE 11.5 mph - N/A   Clear
12:30 PM 95.0 °F 93.7 °F 57.2 °F 28% 29.74 in - ENE 12.7 mph - N/A   Clear
1:00 PM 95.0 °F 95.2 °F 60.8 °F 32% 29.74 in - East 11.5 mph - N/A   Clear
1:30 PM 95.0 °F 94.4 °F 59.0 °F 30% 29.74 in - ENE 12.7 mph - N/A   Clear
2:00 PM 95.0 °F 93.7 °F 57.2 °F 28% 29.74 in - ENE 11.5 mph - N/A   Clear
2:30 PM 95.0 °F 94.4 °F 59.0 °F 30% 29.74 in - ENE 9.2 mph - N/A   Clear
3:00 PM 94 °F - 57 °F 20% 29.74 in 6 mi ENE 8.1 mph - -   Clear
3:00 PM 95.0 °F 93.7 °F 57.2 °F 28% 29.74 in - ENE 8.1 mph - N/A   Clear
3:30 PM 93.2 °F 91.3 °F 55.4 °F 28% 29.71 in - NE 9.2 mph - N/A   Clear
4:00 PM 93.2 °F 92.6 °F 59.0 °F 32% 29.71 in - NNE 9.2 mph - N/A   Clear
4:30 PM 93.2 °F 91.3 °F 55.4 °F 28% 29.71 in - NNE 9.2 mph - N/A   Clear
5:00 PM 91.4 °F 91.4 °F 60.8 °F 36% 29.71 in - NNE 9.2 mph - N/A   Clear
5:30 PM 89.6 °F 90.1 °F 62.6 °F 40% 29.71 in - NNE 8.1 mph - N/A   Clear
6:00 PM 89 °F - 64 °F 34% 29.73 in 6 mi NNE 6.9 mph - -   Clear
6:00 PM 87.8 °F 89.4 °F 64.4 °F 46% 29.71 in - NNE 6.9 mph - N/A   Clear
6:30 PM 89.6 °F 91.1 °F 64.4 °F 43% 29.71 in - NNE 5.8 mph - N/A   Clear
7:00 PM 89.6 °F 90.1 °F 62.6 °F 40% 29.71 in - NE 5.8 mph - N/A   Clear
7:30 PM 87.8 °F 93.8 °F 71.6 °F 58% 29.71 in - NNE 10.4 mph - N/A   Clear
8:00 PM 86.0 °F 93.4 °F 73.4 °F 66% 29.71 in - North 10.4 mph - N/A   Clear
8:30 PM 86.0 °F 93.4 °F 73.4 °F 66% 29.71 in - North 9.2 mph - N/A   Clear
9:00 PM 88 °F - 68 °F 42% 29.72 in 6 mi North 9.2 mph - -   Scattered Clouds
9:00 PM 87.8 °F 91.4 °F 68.0 °F 52% 29.71 in - North 9.2 mph - N/A   Clear
9:30 PM 87.8 °F 90.4 °F 66.2 °F 49% 29.71 in - NNE 9.2 mph - N/A   Clear
10:00 PM 87.8 °F 90.4 °F 66.2 °F 49% 29.71 in - North 8.1 mph - N/A   Clear
10:30 PM 87.8 °F 92.6 °F 69.8 °F 55% 29.71 in - North 5.8 mph - N/A   Clear
11:00 PM 86.0 °F 90.4 °F 69.8 °F 58% 29.71 in - North 8.1 mph - N/A   Clear
11:30 PM 86.0 °F 90.4 °F 69.8 °F 58% 29.71 in - North 8.1 mph 19.6 mph N/A   Clear